Preview of NWS' New Version of Forecast
This preview is not operational and should not be used for support decisions.

Regional Weather Roundup (RWR)

Issued by National Weather Service (NWS)

                            
000
ASUS42 KTBW 171817
RWRFL 
FLORIDA REGIONAL WEATHER ROUNDUP
NATIONAL WEATHER SERVICE TAMPA BAY RUSKIN FL
200 PM EDT WED JUL 17 2019

NOTE: "FAIR" INDICATES FEW OR NO CLOUDS BELOW 12,000 FEET WITH NO
SIGNIFICANT WEATHER AND/OR OBSTRUCTIONS TO VISIBILITY.

FLZ001>010-012>015-112-114-115-171900-
PANHANDLE FLORIDA
  
CITY           SKY/WX    TMP DP  RH WIND       PRES   REMARKS
PENSACOLA      FAIR      92  78  63 SE12      30.13F HX 107           
PENSACOLA NAS  FAIR      91  78  65 S13       30.13F HX 106           
MILTON NAS     FAIR      91  73  55 SW5       30.14S HX  99           
CRESTVIEW      FAIR      92  71  50 VRB6      30.14F HX  98           
DUKE FIELD     FAIR      92  72  51 W8        30.12F HX  99           
VALPARAISO     PTSUNNY   90  75  60 S13       30.12F HX 101           
MARY ESTHER    MOSUNNY   90  73  56 S12       30.12F HX  98           
TRI COUNTY     FAIR      93  75  55 CALM      30.13F HX 104           
PANAMA CITY    PTSUNNY   89  74  60 SE8       30.12F HX  98           
TYNDALL AFB    FAIR      90  76  63 SW9       30.12F HX 101           
APALACHICOLA   FAIR      91  77  63 S9        30.13F HX 104           

STATION/POSITION SKY/WX   TEMP    WIND        PRES    WAVE   SWELL
                          AIR SEA DIR/SP/G            HT/PER HT/PER
                          (F)     (DEG/KT/KT) (MB)    (FT/S) (FT/S)
30.1N   87.6W              85 86  240/  4/  4 1020.9F   1/ 5   2/ 5
29.2N   88.2W              85 84   70/  2/  4 1020.8
28.8N   86.0W              86 87  170/  2/  4 1020.8F   1/ 5   2/ 5
PANAMA CITY BEAC           85 87  240/  8/ 10 1021.2F
TOWER C                    85        CALM     1020.8F
28.5N   84.5W              86     100/  2/  4 1021.1F   1/ 6   2/ 6

$$
FLZ011-016>038-118-127-128-134-139-239-171900-
NORTH FLORIDA
  
CITY           SKY/WX    TMP DP  RH WIND       PRES   REMARKS
MARIANNA       FAIR      91  74  57 NW7       30.12F HX 100           
TALLAHASSEE    FAIR      93  75  55 VRB6      30.12F HX 104           
PERRY          TSTM      79  75  87 S21       30.14R                  
LIVE OAK         N/A     93  75  55 W3        30.11F HX 104           
CROSS CITY     PTSUNNY   91  77  62 W9        30.11F THUNDER HX 105   
LAKE CITY      FAIR      91  73  55 NE3       30.11F HX 100           
GAINESVILLE    NOT AVBL                                               
WILLISTON      PTSUNNY   94  72  49 SE5       30.11F HX 102           
PALATKA        FAIR      93  75  55 NW3       30.11F HX 104           
MAYPORT NAS    PTSUNNY   91  76  61 E10       30.10F THUNDER HX 103   
JACKSONVILLE   PTSUNNY   96  71  44 CALM      30.09F THUNDER HX 103   
JAX NAS        PTSUNNY   94  72  48 E7        30.12S THUNDER HX 102   
JAX CECIL      PTSUNNY   97  73  46 NW7       30.10F HX 107           
FERNANDINA BEA FAIR      91  76  61 E12       30.10F HX 104           
ST AUGUSTINE   FAIR      91  79  67 E14       30.12F HX 107           
PALM COAST     PTSUNNY   90  75  62 VRB6      30.12F HX 100           

STATION/POSITION SKY/WX   TEMP    WIND        PRES    WAVE   SWELL
                          AIR SEA DIR/SP/G            HT/PER HT/PER
                          (F)     (DEG/KT/KT) (MB)    (FT/S) (FT/S)
SHELL POINT      NOT AVBL
KEATON BEACH               77      50/  6/  8 1020.6R
CEDAR KEY                  87     220/  5/  7 1020.1F
FERNANDINA                 97 86   90/  3/  7 1020.5F
30.7N   81.3W                 86                N/A     1/ 9
MAYPORT                    87 82   70/  8/  9 1020.5F
31.4N   80.9W              85 88  170/  6/  6 1019.7F   1/ 9   2/ 9
ST AUGUSTINE               81 80  130/ 10/ 11 1020.2F

$$
FLZ040-043>046-052-053-057-058-063-144-171900-
INTERIOR CENTRAL FLORIDA
  
CITY           SKY/WX    TMP DP  RH WIND       PRES   REMARKS
LEESBURG       FAIR      92  74  55 S6        30.13F HX 101           
SANFORD        FAIR      94  71  47 VRB7      30.11F HX 101           
ORLANDO EXEC   FAIR      93  71  48 S8        30.12F HX 100           
ORLANDO INTL   FAIR      92  71  50 VRB7      30.12F HX  98           
KISSIMMEE      FAIR      92  72  51 SE9       30.14F HX  99           
WINTER HAVEN   PTSUNNY   94  70  45 VRB3      30.14F HX 100           
LAKELAND       PTSUNNY   90  72  55 S6        30.14F HX  96           
BARTOW         PTSUNNY   93  72  49 SE6       30.12F HX 100           
SEBRING        FAIR      91  69  48 SE6       30.13F HX  96           
OKEECHOBEE     FAIR      90  70  51 S5        30.12F HX  95           

$$
FLZ041-047-054-059-064-141-147-171900-
EAST CENTRAL FLORIDA
  
CITY           SKY/WX    TMP DP  RH WIND       PRES   REMARKS
ORMOND BEACH   MOSUNNY   90  77  66 E12       30.12F HX 102           
DAYTONA BEACH  FAIR      90  79  70 E7        30.12F HX 106           
DELAND         FAIR      91  72  52 CALM      30.11F HX  98           
NEW SMYRNA BEA MOSUNNY   91  77  62 SE12      30.14F HX 105           
TITUSVILLE     PTSUNNY  N/A N/A N/A S6        30.15S                  
CAPE CANAVERAL MOSUNNY   90  53  27 SE14      30.13S                  
PATRICK AFB    FAIR      86  80  80 E13       30.14S HX 100           
MELBOURNE      FAIR      87  76  69 E13       30.14S HX  97           
VERO BEACH     FAIR      87  76  69 E10       30.15F HX  97           
FT PIERCE      FAIR      86  72  62 SE9       30.14F                  
STUART         PTSUNNY   86  73  66 E10       30.15F                  

STATION/POSITION SKY/WX   TEMP    WIND        PRES    WAVE   SWELL
                          AIR SEA DIR/SP/G            HT/PER HT/PER
                          (F)     (DEG/KT/KT) (MB)    (FT/S) (FT/S)
28.5N   80.2W              82 84  170/  8/ 10 1021.1R   1/ 8   2/ 8
28.9N   78.5W              85 86  200/  8/ 12   N/A     2/10   2/10
TRIDENT PIER               87 85   90/  8/ 11 1022.4R
28.4N   80.5W                 84                N/A     1/ 8
27.5N   80.2W                 83                N/A     1/10

$$
FLZ050-056-061-142-242-148-248-149-249-151-251-155-255-
160-260-171900-
WEST CENTRAL FLORIDA
  
CITY           SKY/WX    TMP DP  RH WIND       PRES   REMARKS
CRYSTAL RIVER  LGT RAIN  88  79  74 W7        30.12F HX 102           
INVERNESS      FAIR      93  73  52 CALM      30.13F HX 102           
BROOKSVILLE    FAIR      93  75  55 S5        30.13F HX 104           
CLEARWATER AIR FAIR      86  77  74 SW8       30.13F HX  97           
ST PETE CLEARW FAIR      88  75  65 W9        30.12F HX  97           
TAMPA INTL     PTSUNNY   90  74  59 SW8       30.13F THUNDER HX  99   
TAMPA EXEC     PTSUNNY   90  77  66 SW5       30.13F HX 102           
PLANT CITY     CLOUDY   N/A N/A N/A MISG      30.15F                  
MACDILL AFB    PTSUNNY   90  77  65 S10       30.13F HX 103           
PETER O KNIGHT PTSUNNY   90  79  70 S7        30.13F HX 105           
ST PETERSBURG  FAIR      89  75  63 W10       30.11F HX  99           
SARASOTA       FAIR      90  77  65 SW12      30.12F HX 103           
VENICE         FAIR      90  77  66 SW10      30.14F HX 102           

STATION/POSITION SKY/WX   TEMP    WIND        PRES    WAVE   SWELL
                          AIR SEA DIR/SP/G            HT/PER HT/PER
                          (F)     (DEG/KT/KT) (MB)    (FT/S) (FT/S)
27.3N   84.2W                 88                N/A     1/ 4
CLEARWATER BEACH           84 88  210/  8/ 10 1021.0F
MIDDLE TAMPA BAY           85     270/ 10/ 12 1020.8F
VENICE                     86 85  230/ 10/ 11 1020.2F

$$
FLZ066-069-070-075>078-162-262-165-265-171900-
SOUTHWEST FLORIDA AND KEYS
  
CITY           SKY/WX    TMP DP  RH WIND       PRES   REMARKS
PUNTA GORDA    FAIR      91  70  49 S7        30.14F HX  96           
FT MYERS       FAIR      92  72  51 VRB3      30.11F HX  99           
SOUTHWEST INTL FAIR      91  71  51 CALM      30.11F HX  97           
NAPLES         MOSUNNY  N/A N/A N/A SW9       30.11F                  
MARCO ISLAND   FAIR      94  73  50 MISG      30.12F HX 103           
IMMOKALEE      FAIR      95  73  49 VRB3      30.09F HX 105           
MARATHON       FAIR      92  77  61 SE7       30.11S HX 105           
KEY WEST NAS   FAIR      93  76  57 E12       30.11S HX 105           
KEY WEST INTL  FAIR      90  76  63 E9        30.11F HX 101           

STATION/POSITION SKY/WX   TEMP    WIND        PRES    WAVE   SWELL
                          AIR SEA DIR/SP/G            HT/PER HT/PER
                          (F)     (DEG/KT/KT) (MB)    (FT/S) (FT/S)
NAPLES                     89 88              1020.0R
26.0N   85.6W              86 85  130/  8/ 10 1020.5F   2/ 5   2/ 5
DRY TORTUGAS               86     100/ 11/ 11 1019.8F
SAND KEY                   86     100/  9/ 13 1018.6
SOMBRERO KEY               85     100/  8/  9 1019.7
LONG KEY                   86                 1019.0

$$
FLZ067-068-071>074-168-172>174-171900-
SOUTHEAST FLORIDA 
  
CITY           SKY/WX    TMP DP  RH WIND       PRES   REMARKS
W PALM BEACH   PTSUNNY   91  71  51 E12       30.13F HX  97           
BOCA RATON     MOSUNNY   93  73  52 SE9       30.13S HX 102           
FT LAUDER-EXEC FAIR      91  73  55 E10       30.12S HX  99           
FT LAUDERDALE  FAIR      90  76  63 SE13G23   30.12S HX 101           
POMPANO BEACH  FAIR      91  72  53 E12       30.13S HX  98           
PEMBROKE PINES FAIR      93  73  52 SE6       30.14R HX 102           
OPA LOCKA      FAIR      91  75  59 E13       30.13R HX 101           
MIAMI          FAIR      90  74  59 SE10      30.12S HX  99           
WEST KENDALL   FAIR      92  74  55 E10       30.12S HX 101           
HOMESTEAD      FAIR      90  75  62 E9        30.11S HX 100           

STATION/POSITION SKY/WX   TEMP    WIND        PRES    WAVE   SWELL
                          AIR SEA DIR/SP/G            HT/PER HT/PER
                          (F)     (DEG/KT/KT) (MB)    (FT/S) (FT/S)
PORT EVERGLADES            90     100/  4/  7 1020.5
VIRGINIA KEY               86 88  100/  7/ 10 1019.8R
LAKE WORTH                 84 86  120/  6/  9 1021.9F
FOWEY ROCKS                85 86  110/ 10/ 11 1020.3S
SETTLEMENT POINT           86     190/